Hourly Data Report for September 07, 2017

All times are specified in Local Standard Time (LST). Add 1 hour to adjust for Daylight Saving Time where and when it is observed.

SANDY LAKE A
ONTARIO

53°03'51.000" N
93°20'40.000" W
289.90 m
6017401
71587
ZSJ

Download Data

Hourly Data (September 2017)
Hourly Data Report for September 7, 2017
Temp Definition
°C
Dew Point Temp Definition
°C
Rel Hum Definition
%
Wind Dir Definition
10's deg

Wind Spd Definition
km/h
Visibility Definition
km
Stn Press Definition
kPa
Hmdx Definition


Wind Chill Definition


Weather Definition


TIME
00:00 Legend Double Dagger 8.7 8.0 95 LegendMM LegendMM 12.9 98.12     Rain
01:00 Legend Double Dagger 8.5 7.8 95 LegendMM LegendMM 16.1 98.12     Rain
02:00 Legend Double Dagger 8.6 7.5 93 LegendMM LegendMM 8.1 98.13     Rain,Fog
03:00 Legend Double Dagger 8.7 7.6 93 LegendMM LegendMM 16.1 98.12     LegendNANA
04:00 Legend Double Dagger 7.9 7.6 98 LegendMM LegendMM 16.1 98.16     LegendNANA
05:00 Legend Double Dagger 7.4 7.0 97 LegendMM LegendMM 16.1 98.20     LegendNANA
06:00 Legend Double Dagger 7.1 7.0 99 LegendMM LegendMM 16.1 98.24     LegendNANA
07:00 Legend Double Dagger 8.1 7.7 97 LegendMM LegendMM 16.1 98.30     LegendNANA
08:00 Legend Double Dagger 9.2 8.1 93 LegendMM LegendMM 16.1 98.32     LegendNANA
09:00 Legend Double Dagger 10.3 8.6 89 LegendMM LegendMM 16.1 98.37     LegendNANA
10:00 Legend Double Dagger 10.7 7.4 80 LegendMM LegendMM 16.1 98.45     LegendNANA
11:00 Legend Double Dagger 12.1 7.7 74 LegendMM LegendMM 16.1 98.47     LegendNANA
12:00 Legend Double Dagger 11.8 7.5 75 LegendMM LegendMM 16.1 98.48     LegendNANA
13:00 Legend Double Dagger 14.2 7.1 62 LegendMM LegendMM 16.1 98.49     LegendNANA
14:00 Legend Double Dagger 13.8 5.4 57 LegendMM LegendMM 16.1 98.52     LegendNANA
15:00 Legend Double Dagger 15.6 4.6 48 LegendMM LegendMM 16.1 98.47     LegendNANA
16:00 Legend Double Dagger 14.5 3.2 46 LegendMM LegendMM 9.7 98.50     Haze
17:00 Legend Double Dagger 15.6 3.3 43 LegendMM LegendMM 16.1 98.54     LegendNANA
18:00 Legend Double Dagger 14.2 4.9 53 LegendMM LegendMM 16.1 98.56     LegendNANA
19:00 Legend Double Dagger 9.3 7.1 86 LegendMM LegendMM 16.1 98.57     LegendNANA
20:00 Legend Double Dagger 7.2 5.9 91 LegendMM LegendMM 16.1 98.62     LegendNANA
21:00 Legend Double Dagger 5.9 5.6 98 LegendMM LegendMM 16.1 98.66     LegendNANA
22:00 Legend Double Dagger 4.9 4.6 98 LegendMM LegendMM 16.1 98.71     LegendNANA
23:00 Legend Double Dagger 4.9 4.9 100 LegendMM LegendMM 16.1 98.73     LegendNANA

Notes on Data Quality.

Legend

  • E = Estimated
  • M = Missing
  • NA = Not Available
  • ‡ = Partner data that is not subject to review by the National Climate Archives
Date modified: